Погода в Николаевке

Россия / Самарская область     53°05′25″N   50°18′47″E
темп.,
°C
ветер,
м/с
пор.,
м/с
влажн.,
%
обл.,
%
осадки,
мм/ч
давл.,
гПа
погр.,
м
9 мая, вс
вс901:00+14ююв3558100 0.0 101465
04:00+13ююв356299 0.0 101473
07:00+15ююв49618 0.0 1014259
10:00+19ююв684778 0.0 1014716
13:00+23ю663797 0.0 10131911
16:00+23ю4636100 0.0 10132271
19:00+21юв3452100 0.0 101379
22:00+18ююв3359100 0.0 101337
10 мая, пн
пн1001:00+16юв3459100 0.0 101462
04:00+15юв3465100 0.0 101563
07:00+16вюв41160100 0.0 1016310
10:00+22юв584297 0.0 1017769
13:00+24вюв673357 0.0 10172338
16:00+25в673371 0.0 10172600
19:00+21в5104875 0.0 1018304
22:00+17в5125976 0.0 1020244
11 мая, вт
вт1101:00+15в41163100 0.0 1020194
04:00+14в4969100 0.0 1022167
07:00+16в41069100 0.0 1023314
10:00+20вюв5853100 0.0 1024726
13:00+24в554125 0.0 10241920
16:00+24в563957 0.0 10242281
19:00+22в495162 0.0 1024281
22:00+19вюв4105749 0.0 1026258
12 мая, ср
ср1201:00+16вюв376392 0.0 1027112
04:00+15в477030 0.0 1026114
07:00+16вюв4105960 0.0 1027315
10:00+21вюв684037 0.0 1028890
13:00+24вюв6832100 0.0 10281970
16:00+24вюв683019 0.0 10272128
19:00+20юв4746100 0.0 1027198
22:00+17вюв3548100 0.0 102769
13 мая, чт
чт1301:00+15в475879 0.0 1027119
04:00+14в4115594 0.0 1027195
07:00+16вюв5115883 0.0 1028301
10:00+22юв683939 0.0 1027770
13:00+25юв672999 0.0 10271917
16:00+25юв672916 0.0 10261991
19:00+22вюв484587 0.0 1026182
22:00+18вюв474943 0.0 102699